Miscellaneous Local Product
Issued by NWS North Platte, NE

Home | Current Version | Previous Version | Graphics & Text | Print | Product List | Glossary On
Versions: 1 2 3 4 5 6 7 8 9 10 11 12 13 14 15 16 17 18 19 20 21 22 23 24 25 26 27 28 29 30 31 32 33 34 35 36 37 38 39 40 41 42 43 44 45 46 47 48 49 50
000
AXUS43 KLBF 271910
MISLBF


WESTERN AND NORTH CENTRAL NEBRASKA HOURLY WEATHER ROUNDUP
NATIONAL WEATHER SERVICE NORTH PLATTE NE
200 PM CDT SAT MAY 27 2017

NOTE: "FAIR" INDICATES FEW OR NO CLOUDS BELOW 12,000 FEET WITH NO
SIGNIFICANT WEATHER AND/OR OBSTRUCTIONS TO VISIBILITY.

NOTE: STATIONS NOT REPORTING VARIABLES SUCH AS SKY/WEATHER OR
PRESSURE ARE PROVIDED BY RAWS AND APRS NETWORKS AND ARE NOT UNDER
NATIONAL WEATHER SERVICE QUALITY CONTROL.

...OBSERVATIONS IN AND NEAR THE EASTERN PANHANDLE OF NEBRASKA...

CITY           SKY/WX    TMP DP  RH WIND       PRES   REMARKS
PINE RIDGE     MOSUNNY   66  42  41 N6        30.04S
GORDON         MOCLDY    63  43  47 N9        30.04S
CHADRON        CLOUDY    62  42  47 N10       30.05S
ALLIANCE       CLOUDY    60  43  53 N14G30    30.06S
SIDNEY         PTSUNNY   59  45  59 NW15      30.08S
CRESCENT LAKE    N/A     61  46  56 NW10        N/A
$$

...OBSERVATIONS IN NORTHERN NEBRASKA AND FAR SOUTHERN SOUTH DAKOTA...

CITY           SKY/WX    TMP DP  RH WIND       PRES   REMARKS
WINNER         CLOUDY    63  53  70 SW9       29.99F
VALENTINE      CLOUDY    62  49  62 NW7       30.02F
THEDFORD       CLOUDY    57  51  79 N5        30.04S
AINSWORTH      CLOUDY    55  52  89 CALM      30.03S
O`NEILL        PTSUNNY   64  50  61 NW15      30.00R
ORD            CLOUDY    68  47  46 NW5       29.95S
BROKEN BOW     CLOUDY    65  52  62 N12       29.98F
VALENTINE NWR    N/A     56  49  79 NE3         N/A
HALSEY           N/A     55  51  88 N6          N/A
BUTTE            N/A     57  51  79 W6          N/A
CHAMBERS         N/A     69  52  54 W3          N/A
EWING            N/A     67  55  66 N8          N/A
$$

...OBSERVATIONS IN SOUTHWEST NEBRASKA AND FAR NORTHEAST COLORADO...

CITY           SKY/WX    TMP DP  RH WIND       PRES   REMARKS
WRAY           MOCLDY    66  46  48 N16G23    30.05F
IMPERIAL       CLOUDY    63  49  60 MISG      30.03S
OGALLALA       LGT RAIN  61  52  72 N7        30.04F
NORTH PLATTE   CLOUDY    61  55  81 N7        30.02R
MCCOOK         CLOUDY    68  55  63 N16       29.98R
LEXINGTON      CLOUDY    67  54  62 N12       29.97R
STAPLETON        N/A     56  51  84 CALM        N/A
GOTHENBURG       N/A     62  49  63 N12         N/A
CALLAWAY         N/A     60  55  83 N12         N/A
$$

...OBSERVATIONS IN CENTRAL LINCOLN COUNTY AREA...

CITY           SKY/WX    TMP DP  RH WIND       PRES   REMARKS
N.P. AIRPORT   CLOUDY    61  55  81 N7        30.02R
N.P. DOWNTOWN    N/A     59  52  78 N3G13       N/A
N.P. SOUTHEAST   N/A     59  51  76 MISG        N/A
N.P. HILLCREST   N/A     58  51  79 N12         N/A
$$

...SOME OBSERVATIONS FROM AROUND THE REGION...

CITY           SKY/WX    TMP DP  RH WIND       PRES   REMARKS
DENVER         LGT RAIN  53  43  68 NE12      30.11R
LIMON          MOSUNNY   59  43  55 N22       30.08F
ASPEN          CLOUDY    45  38  76 CALM      30.21S
LARAMIE        CLOUDY    49  33  54 N20G25    30.18S
CASPER         CLOUDY    55  39  54 W21       30.18R
CHEYENNE       CLOUDY    51  37  58 N14G26    30.14S
SCOTTSBLUFF    MOSUNNY   63  43  48 N8        30.08S
GRAND ISLAND   SUNNY     73  49  42 NE7G17    29.92F
OMAHA          PTSUNNY   71  58  63 NE10      29.87F
SIOUX FALLS    CLOUDY    63  54  72 SW8       29.95F
PIERRE         PTSUNNY   70  46  42 SW6       29.93F
RAPID CITY     SUNNY     69  35  28 NW15G25   30.01S
BISMARCK       MOSUNNY   76  39  26 W20G28    29.84F
KANSAS CITY    CLOUDY    64  60  87 SW8       29.79R
HILL CITY      MOSUNNY   73  60  63 NW16      29.92F
WICHITA        PTSUNNY   77  60  55 NE10      29.81R
DODGE CITY     PTSUNNY   77  56  48 N10G20    29.91F
OKLAHOMA CITY  PTSUNNY   92  68  45 SW14      29.76F HX  96
DALLAS         PTSUNNY   90  76  63 S21       29.81F HX 101
AMARILLO       SUNNY     82  51  34 N10       29.95F
$$




USA.gov is the U.S. government's official web portal to all federal, state and local government web resources and services.